Date,TemperatureHighF,TemperatureAvgF,TemperatureLowF,DewpointHighF,DewpointAvgF,DewpointLowF,HumidityHigh,HumidityAvg,HumidityLow,PressureMaxIn,PressureMinIn,WindSpeedMaxMPH,WindSpeedAvgMPH,GustSpeedMaxMPH,PrecipitationSumIn
2013-6-1,89.3,79.2,71.6,74.9,71.5,68.4,93,78,56,30.03,29.94,9,2,15,0.00
2013-6-2,93.8,77.2,70.8,74.3,71.1,69.1,97,84,50,29.98,29.84,14,2,22,1.19
2013-6-3,90.4,77.5,70.1,76.4,72.3,69.2,98,85,56,29.94,29.83,8,1,10,0.01
2013-6-4,94.2,80.3,71.3,76.7,72.9,70.1,97,80,47,29.96,29.88,9,1,17,0.00
2013-6-5,86.6,76.6,68.4,76.2,71.8,66.6,97,86,66,29.98,29.86,10,3,16,0.24
2013-6-6,81.0,73.9,69.5,73.9,70.6,67.9,97,90,74,29.90,29.70,13,2,13,0.16
2013-6-7,85.6,74.5,67.8,73.4,69.8,66.7,97,86,60,29.90,29.71,9,2,15,0.05
2013-6-8,88.6,76.3,64.5,77.1,70.6,63.3,97,84,59,30.05,29.89,7,1,12,0.11
2013-6-9,74.7,71.9,70.6,72.9,70.5,69.4,97,96,92,30.06,29.95,10,2,15,1.02
2013-6-10,81.4,74.5,70.6,75.7,72.3,69.7,98,93,79,30.08,29.98,11,3,15,0.26
2013-6-11,93.1,81.5,72.2,78.3,74.5,71.0,98,81,54,30.09,29.98,7,2,9,0.00
2013-6-12,95.3,83.2,72.9,79.3,75.8,71.7,97,80,53,30.07,29.97,7,2,11,0.00
2013-6-13,94.7,84.5,74.5,77.9,74.7,72.7,94,75,51,30.00,29.82,11,3,14,0.00
2013-6-14,88.4,79.4,71.5,77.1,72.5,67.0,97,81,57,29.94,29.81,11,3,18,0.42
2013-6-15,91.3,80.1,68.1,73.8,69.8,65.2,94,72,51,30.04,29.93,10,2,15,0.00
2013-6-16,93.1,82.3,73.4,77.1,73.7,69.2,93,77,48,30.08,29.96,8,2,14,0.00
2013-6-17,88.1,78.6,72.1,80.7,75.4,70.2,97,90,76,30.02,29.94,13,2,18,0.33
2013-6-18,88.8,78.5,71.5,79.5,74.7,69.3,97,89,69,29.99,29.86,22,3,27,0.74
2013-6-19,84.9,76.3,71.5,76.1,72.3,70.0,98,88,72,30.02,29.91,8,2,12,0.03
2013-6-20,87.5,78.5,68.9,76.2,72.2,67.7,97,82,62,30.10,30.00,10,2,13,0.01
2013-6-21,88.3,79.2,70.7,75.0,70.9,67.0,96,77,57,30.14,30.05,9,2,12,0.00
2013-6-22,88.8,77.7,66.9,74.6,70.3,64.9,95,79,58,30.13,30.02,8,1,13,0.00
2013-6-23,85.3,76.4,70.4,76.3,72.7,68.8,97,89,72,30.12,30.04,10,1,12,0.00
2013-6-24,91.8,77.8,70.9,77.2,72.4,69.7,97,85,55,30.18,30.07,18,1,19,0.06
2013-6-25,90.4,79.2,69.4,77.9,73.6,68.2,97,84,61,30.14,30.02,7,1,14,0.01
2013-6-26,91.6,81.9,71.5,77.3,74.1,70.0,97,79,56,30.09,29.95,8,2,9,0.00
2013-6-27,91.0,82.3,73.7,79.0,75.8,72.2,97,82,62,30.00,29.87,8,3,12,0.00
2013-6-28,95.1,80.3,70.3,80.5,75.3,69.1,96,86,57,29.89,29.75,13,4,23,0.57
2013-6-29,88.8,76.7,69.1,77.9,72.5,68.2,98,88,63,29.83,29.66,13,3,20,1.24
2013-6-30,85.6,77.1,72.0,77.4,73.5,71.1,98,89,72,29.77,29.69,8,1,9,0.12